www.pogodaiklimat.ru

Погода и климат >> Архив погоды >> Мьянма >> Ньянг-У


ПОГОДА в Ньянг-У

  • Прогноз погоды в Ньянг-У
  • Монитор погоды в Ньянг-У

АРХИВ ПОГОДЫ в Ньянг-У

Время (UTC), дата Ветер
(напр.,м/с)
 
Видим.   Явления Облачность Т
(С)
Тd
(С)
f
(%)
Тe
(С)
Тes
(С)
Комфортность P
(гПа)
Po
(гПа)
Тmin
(С)
Tmax
(С)
R
(мм)
R24
(мм)
S
(см)
03 12.03 С 1 6000 м ясно +23.0 +14.3 58 +27 +39 душно 1012.3 1005.9
06 12.03 СВ 1 7000 м ясно +33.6 +14.5 32 +35 +57 опасность
солнечного
удара
1012.4 1006.2
09 12.03 С 1 10 км ясно +36.7 +17.1 32 +40 +49 очень
душно
1008.3 1002.2
12 12.03 СВ 1 5000 м ясно +32.0 +14.0 34 +34 +34 душно 1007.8 1001.6 +37.2
00 13.03 штиль 0 4000 м ясно +16.2 +14.4 89 +16 +16 1012.1 1005.5 +15.7
03 13.03 СВ 1 6000 м ясно +26.8 +11.3 38 +28 +41 жарко 1014.2 1007.9
06 13.03 СВ 1 7000 м ясно +34.0 +12.5 27 +34 +56 опасность
солнечного
удара
1013.2 1007.0
09 13.03 СВ 1 10 км ясно +37.5 +15.0 26 +39 +48 очень
душно
1010.0 1003.9
12 13.03 СВ 1 5000 м ясно +32.6 +15.1 35 +35 +35 душно 1009.5 1003.3 +38.0
00 14.03 штиль 0 5000 м ясно +17.0 +15.4 90 +17 +17 1012.9 1006.4 +16.4
03 14.03 СВ 1 6000 м ясно +25.0 +12.6 46 +27 +40 жарко 1015.0 1008.6
06 14.03 СВ 1 7000 м ясно +33.5 +14.5 32 +35 +57 опасность
солнечного
удара
1013.2 1007.0
09 14.03 СВ 1 10 км ясно +37.7 +18.7 33 +42 +51 опасность
перегрева
1009.1 1003.0
12 14.03 СВ 1 5000 м ясно +33.2 +17.2 39 +37 +37 очень
душно
1008.8 1002.6 +38.3
03 15.03 ЮЗ 1 7000 м ясно +25.0 +16.7 60 +29 +42 душно 1015.3 1008.9
06 15.03 СЗ 1 7000 м ясно +34.0 +14.5 31 +35 +57 опасность
солнечного
удара
1013.6 1007.4
09 15.03 СВ 1 10 км ясно +39.2 +17.7 29 +42 +52 опасность
перегрева
1009.1 1003.0
12 15.03 СЗ 1 5000 м ясно +33.0 +19.1 44 +38 +38 очень
душно
1008.0 1001.8 +39.8
00 16.03 СЗ 1 5000 м ясно +21.1 +17.5 80 +25 +25 комфорт 1010.7 1004.3 +20.6
03 16.03 СЗ 1 6000 м ясно +27.0 +17.2 55 +31 +44 душно 1013.4 1007.1
06 16.03 СЗ 1 8000 м ясно +35.6 +15.6 30 +37 +60 опасность
солнечного
удара
1012.4 1006.3
09 16.03 СВ 1 8000 м ясно +38.5 +17.7 30 +42 +51 опасность
перегрева
1008.6 1002.5
12 16.03 СВ 1 5000 м 4/4 600 м
[Cu Sc]
+34.0 +22.5 51 +43 +43 опасность
перегрева
1007.9 1001.8 +39.0
00 17.03 штиль 0 5000 м 3/3 600 м
[Sc]
+20.5 +16.8 79 +23 +24 комфорт 1010.9 1004.4 +20.0
03 17.03 СВ 1 7000 м 4/4 600 м
[Cu Sc]
+26.6 +19.1 63 +32 +40 очень
душно
1014.6 1008.3
06 17.03 СВ 1 8000 м 4/4 600 м
[Cu Sc]
+35.0 +18.2 37 +39 +52 опасность
солнечного
удара
1013.4 1007.2
12 17.03 СВ 1 5000 м ясно +34.0 +16.4 35 +37 +37 очень
душно
1008.7 1002.5 +39.5
00 18.03 С 1 5000 м 4/4 600 м
[Cu Sc]
+20.5 +16.8 79 +25 +25 комфорт 1011.1 1004.6 +20.0
03 18.03 СВ 1 6000 м ясно +27.0 +15.4 49 +30 +43 душно 1013.6 1007.3
06 18.03 С 1 8000 м ясно +35.7 +15.6 30 +37 +60 опасность
солнечного
удара
1012.5 1006.4
09 18.03 СВ 1 10 км ясно +38.0 +15.9 27 +40 +49 очень
душно
1007.7 1001.6
12 18.03 СВ 1 5000 м ясно +33.5 +18.4 41 +38 +38 очень
душно
1005.9 999.8 +38.5
00 19.03 штиль 0 5000 м ясно +20.7 +17.5 82 +24 +24 комфорт 1009.5 1003.1 +20.2

 

Местоположение метеостанции Ньянг-У (Мьянма): широта 21.20 долгота 94.92 высота над уровнем моря 55 м.

В архиве по умолчанию представлена погода в Ньянг-У за последнюю неделю. Архивные данные за месяц целиком и за предыдущие месяцы, начиная с января 2011 года, Вы можете получить, выбрав интересующий диапазон дат из раскрывающегося списка и нажав кнопку "Ввод!".


*Определитесь, кто Вы:
робот инопланетянин человек

Внимание! Время в таблицах - всемирное. Для получения местного времени необходимо прибавить поправку, которая равна 6.5 ч.

Смотрите также архив погоды в соседних городах и на ближайших метеорологических станциях:

Погода в Чау (Мьянма) (37 км)
Погода в Моунъюа (Мьянма) (102 км)
Погода в Миндате (Мьянма) (103 км)
Погода в Мейтхиле (Мьянма) (103 км)
Погода в Минбу (Мьянма) (115 км)
Погода в Магуэе (Мьянма) (117 км)
Погода в Сикайне (Мьянма) (132 км)
Погода в Мандалае (Мьянма) (150 км)
Погода в Шуэбо (Мьянма) (174 км)
Погода в Мемьо (Мьянма) (184 км)

Пояснения к столбцам:

Ветер - указаны скорость ветра в м/с - средняя за 10 мин, порывы в срок и между сроками (в фигурных скобках) и направление, откуда дует ветер: С - северный, СВ - северо-восточный, В - восточный, ЮВ - юго-восточный, Ю - южный, ЮЗ - юго-западный, З - западный, СЗ - северо-западный.
Видимость - горизонтальная дальность видимости в метрах или километрах. При видимости от 1 до 10 км при отсутствии осадков обычно наблюдается дымка, при ухудшении видимости до 1 км и менее - туман. В сухую погоду видимость может ухудшаться дымом, пылью или мглою.
Явления - указаны атмосферные явления, наблюдавшиеся в срок или в последний час перед сроком; фигурными скобками обозначены явления, наблюдавшиеся между сроками (за 1-3 часа до срока); квадратными скобками обозначены град или гололедные отложения с указанием их диаметра в мм.
Облачность - указаны через наклонную черту общая и нижняя облачность в баллах и высота нижней границы облаков в метрах; квадратными скобками обозначены формы облаков: Ci - перистые, Cs - перисто-слоистые, Cc - перисто-кучевые, Ac - высококучевые, As - высокослоистые, Sc - слоисто-кучевые, Ns - слоисто-дождевые, Cu - кучевые, Cb - кучево-дождевые. Подробнее классификацию облаков см. в Атласе облаков (PDF).
T - Температура воздуха - температура, измеренная на высоте 2 м над землей.
Td - Температура точки росы - температура, при понижении до которой содержащийся в воздухе водяной пар достигнет насыщения.
f - Относительная влажность воздуха - влажноcть воздуха, измеренная на высоте 2 м над землей.
Te - Эффективная температура - температура, которую ощущает одетый по сезону человек в тени. Характеристика душности погоды. При расчете учитывается влияние влажности воздуха и скорости ветра на теплоощущения человека.
Tes - Эффективная температура на солнце - температура, которую ощущает человек, с поправкой на солнечный нагрев. Характеристика знойности погоды. Зависит от высоты солнца над горизонтом, облачности и скорости ветра. Ночью, в пасмурную погоду, а также при ветре 12 м/с и более поправка равна нулю.
P - Атмосферное давление - приведенное к уровню моря атмосферное давление.
Po - Атмосферное давление - измеренное на уровне метеостанции атмосферное давление.
Tmin - Минимальная температура - минимум температуры воздуха на высоте 2 м над землей.
Tmax - Максимальная температура - максимум температуры воздуха на высоте 2 м над землей.
R - Количество осадков - Количество выпавших осадков за период времени, мм. При наведении курсора мыши на число - период времени, за который выпало указанное количество осадков.
R24 - Количество осадков - Количество выпавших осадков за 24 часа, мм.
S - Снежный покров - Высота снежного покрова, см. При наведении курсора мыши на число - состояние снежного покрова и степень покрытия местности в баллах.